[[[{"header":{"parameterUnit":"kt","parameterCategory":2,"dx":1,"dy":1,"la1":30.253999710083008,"la2":30.299108505249023,"lo1":-89.0895004272461,"lo2":-89.04439544677734,"nx":28,"ny":28,"refTime":"2022-09-20T15:00:00:Z","depth":0,"parameterNumber":1,"parameterNumberName":"U-component_of_WINDS"},"data":[-1.7854,-1.7807,-1.7762,-1.7688,-1.7634,-1.7576,-1.754,-1.7489,-1.7436,-1.7359,-1.7307,-1.7255,-1.7183,-1.7108,-1.7048,-1.7026,-1.7004,-1.7022,-1.6993,-1.6956,-1.6947,-1.6939,-1.6948,-1.7018,-1.7018,-1.704,-1.704,-1.704,-1.7833,-1.778,-1.7728,-1.7645,-1.7599,-1.7555,-1.7485,-1.745,-1.7398,-1.7332,-1.7277,-1.7205,-1.7142,-1.7061,-1.6992,-1.6968,-1.6943,-1.6953,-1.6955,-1.6944,-1.6902,-1.6912,-1.6975,-1.6975,-1.6975,-1.6975,-1.6975,-1.6975,-1.7784,-1.7758,-1.7682,-1.7623,-1.7569,-1.7513,-1.748,-1.7416,-1.7363,-1.7286,-1.7239,-1.7179,-1.7102,-1.6994,-1.6946,-1.6897,-1.6877,-1.6873,-1.6872,-1.6873,-1.6881,-1.686,-1.6883,-1.6882,-1.6882,-1.6882,-1.6881,0,-1.7734,-1.7698,-1.7643,-1.7576,-1.753,-1.7472,-1.7411,-1.7388,-1.7292,-1.7252,-1.7189,-1.7145,-1.7056,-1.6991,-1.6915,-1.6864,-1.6813,-1.6801,-1.6798,-1.6822,-1.6853,-1.6838,-1.6773,-1.6801,-1.68,-1.6799,-1.6799,-1.6798,-1.7683,-1.7657,-1.7553,-1.7521,-1.7476,-1.7424,-1.7384,-1.7301,-1.7262,-1.7173,-1.7153,-1.7086,-1.7028,-1.6934,-1.6857,-1.6791,-1.6765,-1.6781,-1.6754,-1.6778,-1.6767,-1.677,-1.6768,-1.6789,-1.679,-1.6791,-1.6792,0,-1.7659,-1.7582,-1.7526,-1.7425,-1.7398,-1.7375,-1.7287,-1.7256,-1.7197,-1.7145,-1.7128,-1.7035,-1.6973,-1.6893,-1.6806,-1.6766,-1.6726,-1.6701,-1.6753,-1.6744,-1.6752,-1.6753,-1.6787,-1.6788,-1.6713,-1.6714,-1.6714,0,-1.7585,-1.7553,-1.7441,-1.7413,-1.7374,-1.7291,-1.7255,-1.72,-1.7132,-1.7091,-1.7019,-1.6982,-1.6884,-1.6835,-1.6776,-1.6729,-1.6711,-1.6678,-1.6663,-1.6686,-1.669,-1.6664,-1.6661,-1.6628,-1.6628,-1.6627,-1.6627,0,-1.7557,-1.7458,-1.7411,-1.7375,-1.7263,-1.7242,-1.7194,-1.7117,-1.7077,-1.7012,-1.6986,-1.6916,-1.6878,-1.6825,-1.675,-1.6735,-1.6689,-1.6653,-1.6656,-1.6658,-1.665,-1.6652,-1.6702,-1.6627,-1.6627,-1.6627,-1.6627,0,-1.7486,-1.7423,-1.7366,-1.727,-1.7248,-1.7215,-1.7142,-1.7096,-1.7019,-1.698,-1.6928,-1.687,-1.682,-1.6791,-1.6722,-1.6724,-1.6691,-1.6653,-1.6652,-1.6644,-1.6613,-1.6654,-1.6708,-1.6711,-1.6636,-1.6636,-1.6636,0,-1.7475,-1.7396,-1.7324,-1.727,-1.7222,-1.7145,-1.7108,-1.7042,-1.6986,-1.6936,-1.6874,-1.6817,-1.6778,-1.6749,-1.6725,-1.6658,-1.6656,-1.6656,-1.6586,-1.6585,-1.6611,-1.666,-1.6689,-1.6705,-1.6635,-1.6635,-1.6635,0,-1.7457,-1.732,-1.7316,-1.7272,-1.7171,-1.713,-1.7087,-1.7013,-1.6984,-1.6916,-1.6878,-1.6795,-1.6763,-1.6715,-1.666,-1.6639,-1.6655,-1.6607,-1.6603,-1.662,-1.6627,-1.6656,-1.6659,-1.6622,-1.6622,-1.6622,-1.6635,0,-1.737,-1.7319,-1.7303,-1.7209,-1.7164,-1.7125,-1.7039,-1.7003,-1.6956,-1.6897,-1.6838,-1.676,-1.6683,-1.6664,-1.6616,-1.6594,-1.6586,-1.6551,-1.6516,-1.6548,-1.655,-1.6551,-1.652,-1.6519,-1.6517,-1.6516,0,0,-1.738,-1.7305,-1.7226,-1.7181,-1.7139,-1.7059,-1.7025,-1.6973,-1.6871,-1.6844,-1.6824,-1.6697,-1.6634,-1.6571,-1.6574,-1.6542,-1.6531,-1.6522,-1.6533,-1.6535,-1.6537,-1.6541,-1.6543,-1.6514,-1.6514,-1.6513,-1.6513,0,-1.7331,-1.727,-1.7238,-1.7181,-1.7095,-1.7035,-1.7027,-1.6927,-1.6887,-1.6828,-1.6762,-1.6716,-1.6615,-1.6558,-1.6516,-1.6528,-1.648,-1.651,-1.6546,-1.6523,-1.6527,-1.653,-1.6536,-1.6538,-1.6509,-1.651,-1.651,0,-1.7299,-1.7226,-1.72,-1.7099,-1.7041,-1.6993,-1.6936,-1.6887,-1.685,-1.6762,-1.6705,-1.665,-1.6565,-1.6517,-1.6491,-1.6472,-1.6439,-1.6433,-1.6439,-1.6434,-1.6407,-1.6412,-1.6417,-1.636,-1.6359,-1.6359,0,0,-1.7268,-1.7219,-1.7114,-1.7082,-1.705,-1.696,-1.6924,-1.6873,-1.6799,-1.677,-1.6699,-1.6629,-1.6569,-1.6532,-1.6471,-1.6429,-1.6406,-1.6418,-1.6425,-1.6431,-1.6431,-1.6405,-1.641,-1.6359,-1.6359,-1.6359,0,0,-1.7252,-1.7129,-1.7094,-1.7046,-1.698,-1.6873,-1.6856,-1.681,-1.6747,-1.6741,-1.665,-1.6627,-1.6579,-1.6527,-1.653,-1.6458,-1.6425,-1.6422,-1.6494,-1.6501,-1.6508,-1.6522,-1.646,0,0,0,0,0,-1.7158,-1.7145,-1.7114,-1.7093,-1.6964,-1.689,-1.6873,-1.6798,-1.6777,-1.6766,-1.6698,-1.6649,-1.651,-1.651,-1.649,-1.6488,-1.6351,-1.6352,-1.6354,-1.6435,-1.6444,-1.6451,0,0,0,0,0,0,-1.7149,-1.7124,-1.7114,-1.7008,-1.6978,-1.689,-1.6838,-1.6817,-1.6776,-1.6768,-1.6664,-1.6645,-1.6579,-1.6515,-1.6498,-1.6498,-1.6465,-1.6352,-1.6353,-1.6354,-1.6438,-1.6445,-1.6452,0,0,0,0,0,-1.7142,-1.7121,-1.6933,-1.7008,-1.6982,-1.6879,-1.6838,-1.682,-1.6787,-1.6682,-1.6663,-1.6734,-1.6581,-1.6562,-1.6505,-1.6508,-1.6476,-1.647,-1.6352,-1.6353,-1.6354,-1.6441,0,0,0,0,0,0,-1.7136,-1.7104,-1.6926,-1.6916,-1.7007,-1.6882,-1.686,-1.6823,-1.6702,-1.6683,-1.6748,-1.6743,-1.6583,-1.6567,-1.6553,-1.6516,-1.6485,-1.6479,-1.6476,-1.6353,-1.6354,-1.6354,0,0,0,0,0,0,-1.7114,-1.7096,-1.6921,-1.6924,-1.6913,-1.6886,-1.6866,-1.6806,-1.6701,-1.6775,-1.6767,-1.6748,-1.6604,-1.6571,-1.6559,-1.6468,-1.6492,-1.6487,-1.6482,-1.648,-1.6354,-1.6354,0,0,0,0,0,0,-1.7105,-1.7089,-1.6927,-1.6918,-1.6908,-1.6782,-1.6831,-1.6702,-1.6706,-1.6781,-1.6704,-1.6704,-1.6609,-1.6596,-1.6564,-1.6479,-1.6471,-1.6492,-1.6488,-1.6485,-1.6484,0,0,0,0,0,0,0,-1.7097,-1.7224,-1.6991,-1.6913,-1.6904,-1.6816,-1.6813,-1.681,-1.6706,-1.6705,-1.6705,-1.6704,-1.6526,-1.6519,-1.6513,-1.6487,0,0,-1.6493,-1.649,0,0,0,0,0,0,0,0,-1.723,-1.7226,-1.699,-1.6988,-1.6986,-1.6816,-1.6813,-1.6811,-1.6706,-1.6705,-1.6705,-1.6704,-1.6524,-1.6519,-1.6514,0,0,0,0,0,0,0,0,0,0,0,0,0,0,0,-1.699,-1.6988,0,-1.6816,-1.6814,-1.6812,-1.6706,-1.6705,-1.6705,-1.6704,-1.6523,-1.6518,-1.6514,0,0,0,0,0,0,0,0,0,0,0,0,0,0,0,0,0,0,0,0,0,0,0,0,0,0,0,0,0,0,0,0,0,0,0,0,0,0,0,0,0,0,0,0,0,0,0,0,0,0,0,0,0,0,0,0,0,0,0,0,0,0,0,0,0,0,0,0,0]}],[{"header":{"parameterUnit":"kt","parameterCategory":2,"dx":1,"dy":1,"la1":30.253999710083008,"la2":30.299108505249023,"lo1":-89.0895004272461,"lo2":-89.04439544677734,"nx":28,"ny":28,"refTime":"2022-09-20T15:00:00:Z","depth":0,"parameterNumber":2,"parameterNumberName":"V-component_of_WINDS"},"data":[-2.3951,-2.399,-2.3989,-2.4034,-2.404,-2.4072,-2.4082,-2.4096,-2.4106,-2.4144,-2.4166,-2.4167,-2.4177,-2.4203,-2.4227,-2.4227,-2.4239,-2.4257,-2.4255,-2.4177,-2.4166,-2.4156,-2.4148,-2.4258,-2.4258,-2.4338,-2.4338,-2.4339,-2.3904,-2.391,-2.3932,-2.3952,-2.3971,-2.3955,-2.3969,-2.3987,-2.4015,-2.4027,-2.4046,-2.4079,-2.4104,-2.4106,-2.4131,-2.4151,-2.4145,-2.4158,-2.4159,-2.4162,-2.4077,-2.4068,-2.4163,-2.4163,-2.4163,-2.4163,-2.4163,-2.4163,-2.3817,-2.3839,-2.3849,-2.3873,-2.3881,-2.3895,-2.3916,-2.3917,-2.3938,-2.3961,-2.3952,-2.3983,-2.3994,-2.402,-2.4027,-2.4053,-2.4037,-2.4051,-2.4055,-2.406,-2.4068,-2.3964,-2.4055,-2.4055,-2.4055,-2.4054,-2.4054,0,-2.3753,-2.375,-2.3768,-2.3788,-2.3804,-2.3818,-2.383,-2.3843,-2.3832,-2.3849,-2.3875,-2.3889,-2.3917,-2.3942,-2.3961,-2.3966,-2.3951,-2.3946,-2.3957,-2.3965,-2.3971,-2.3974,-2.3842,-2.3944,-2.3943,-2.3942,-2.3942,-2.3941,-2.3669,-2.3693,-2.37,-2.3714,-2.3719,-2.374,-2.3753,-2.3741,-2.3755,-2.3768,-2.3788,-2.3811,-2.3828,-2.3869,-2.3868,-2.3889,-2.3882,-2.3922,-2.3885,-2.3892,-2.3889,-2.3889,-2.3894,-2.3931,-2.3932,-2.3933,-2.3934,0,-2.3624,-2.3617,-2.3652,-2.3655,-2.3656,-2.3683,-2.3686,-2.3706,-2.3703,-2.3731,-2.3737,-2.3732,-2.3756,-2.3748,-2.3772,-2.3768,-2.3818,-2.3808,-2.3816,-2.3816,-2.3855,-2.3853,-2.3973,-2.399,-2.387,-2.3871,-2.3872,0,-2.3551,-2.3582,-2.357,-2.359,-2.3626,-2.3611,-2.3647,-2.3646,-2.3652,-2.3675,-2.3653,-2.3675,-2.3659,-2.368,-2.3673,-2.3711,-2.3714,-2.3714,-2.3713,-2.3719,-2.3719,-2.3728,-2.3725,-2.3701,-2.37,-2.37,-2.3699,0,-2.3484,-2.3509,-2.3542,-2.3547,-2.3551,-2.3568,-2.357,-2.3575,-2.3586,-2.3599,-2.3607,-2.3622,-2.3631,-2.3645,-2.3636,-2.3611,-2.368,-2.3644,-2.3681,-2.3681,-2.3698,-2.3698,-2.3803,-2.3699,-2.3698,-2.3698,-2.3698,0,-2.3424,-2.3435,-2.3482,-2.3486,-2.3493,-2.3513,-2.3528,-2.3543,-2.355,-2.3546,-2.3555,-2.354,-2.3568,-2.3534,-2.3575,-2.3546,-2.3558,-2.3559,-2.3561,-2.3566,-2.353,-2.3596,-2.3693,-2.3705,-2.3568,-2.3567,-2.3566,0,-2.3352,-2.3394,-2.3381,-2.3424,-2.3443,-2.3419,-2.3442,-2.3447,-2.3443,-2.346,-2.3456,-2.3474,-2.3446,-2.345,-2.3471,-2.3468,-2.3505,-2.3462,-2.3492,-2.3493,-2.3496,-2.3584,-2.3603,-2.3672,-2.3552,-2.3553,-2.3555,0,-2.3294,-2.3295,-2.3303,-2.3309,-2.331,-2.3324,-2.3349,-2.3363,-2.3375,-2.338,-2.3403,-2.3424,-2.3407,-2.3413,-2.34,-2.3422,-2.3479,-2.3399,-2.3399,-2.3418,-2.3542,-2.3561,-2.3572,-2.3467,-2.3469,-2.347,-2.3543,0,-2.3215,-2.3232,-2.3252,-2.326,-2.3269,-2.3293,-2.3281,-2.3292,-2.328,-2.3274,-2.3304,-2.3303,-2.3316,-2.3323,-2.331,-2.3361,-2.3352,-2.3331,-2.3299,-2.3355,-2.338,-2.3389,-2.3265,-2.3264,-2.3263,-2.3262,0,0,-2.315,-2.3173,-2.3155,-2.3176,-2.3183,-2.3155,-2.3183,-2.3185,-2.319,-2.3197,-2.3178,-2.3209,-2.3208,-2.3246,-2.3262,-2.3265,-2.3275,-2.3254,-2.3327,-2.3335,-2.3341,-2.3368,-2.3377,-2.326,-2.326,-2.326,-2.326,0,-2.3118,-2.3115,-2.314,-2.3142,-2.3144,-2.3135,-2.3142,-2.3138,-2.3135,-2.3161,-2.3139,-2.3155,-2.3176,-2.3181,-2.3186,-2.3249,-2.3232,-2.3252,-2.3293,-2.3319,-2.3327,-2.3335,-2.3362,-2.3372,-2.3257,-2.3258,-2.3258,0,-2.3062,-2.3059,-2.3068,-2.3077,-2.3077,-2.3094,-2.3059,-2.3076,-2.309,-2.3057,-2.3083,-2.308,-2.3082,-2.3117,-2.3132,-2.3116,-2.3194,-2.3164,-2.3169,-2.3171,-2.3196,-2.3206,-2.3215,-2.3096,-2.3096,-2.3095,0,0,-2.3037,-2.3051,-2.3041,-2.3069,-2.3071,-2.3058,-2.3064,-2.3052,-2.3053,-2.3054,-2.3049,-2.3052,-2.3066,-2.3075,-2.3086,-2.3124,-2.3126,-2.3145,-2.3152,-2.3158,-2.3164,-2.319,-2.32,-2.3094,-2.3094,-2.3094,0,0,-2.3025,-2.3015,-2.3001,-2.3031,-2.3034,-2.3026,-2.3044,-2.3028,-2.3036,-2.3032,-2.3011,-2.3011,-2.3042,-2.3039,-2.3016,-2.3075,-2.3043,-2.3048,-2.3076,-2.3085,-2.3093,-2.3094,-2.2979,0,0,0,0,0,-2.2985,-2.3016,-2.3004,-2.3007,-2.3016,-2.3033,-2.3034,-2.3018,-2.2997,-2.3013,-2.3007,-2.2985,-2.3024,-2.3003,-2.3006,-2.3033,-2.3069,-2.3074,-2.3078,-2.3122,-2.3132,-2.314,0,0,0,0,0,0,-2.2986,-2.2989,-2.3003,-2.2997,-2.2999,-2.3031,-2.2994,-2.299,-2.2995,-2.2991,-2.2987,-2.2985,-2.2972,-2.3,-2.3003,-2.3029,-2.2978,-2.3071,-2.3075,-2.3078,-2.3125,-2.3134,-2.3141,0,0,0,0,0,-2.2987,-2.2989,-2.3008,-2.2997,-2.2998,-2.2985,-2.2992,-2.2989,-2.2993,-2.2982,-2.2979,-2.298,-2.2973,-2.2975,-2.3002,-2.3028,-2.2975,-2.2977,-2.3074,-2.3076,-2.3079,-2.3129,0,0,0,0,0,0,-2.2987,-2.2987,-2.3008,-2.3008,-2.2983,-2.2982,-2.2982,-2.2988,-2.2983,-2.298,-2.2973,-2.297,-2.2974,-2.2975,-2.2977,-2.3029,-2.2973,-2.2975,-2.2976,-2.3076,-2.3078,-2.308,0,0,0,0,0,0,-2.2985,-2.2987,-2.3008,-2.2991,-2.2989,-2.2981,-2.298,-2.2999,-2.2983,-2.2974,-2.2971,-2.2972,-2.2972,-2.2976,-2.2977,-2.3008,-2.2972,-2.2973,-2.2974,-2.2975,-2.3078,-2.3079,0,0,0,0,0,0,-2.2986,-2.2987,-2.2991,-2.299,-2.2988,-2.2986,-2.2997,-2.3008,-2.2969,-2.2975,-2.2965,-2.2963,-2.2973,-2.2974,-2.2977,-2.3008,-2.3008,-2.2972,-2.2973,-2.2973,-2.2974,0,0,0,0,0,0,0,-2.2986,-2.298,-2.3008,-2.2988,-2.2986,-2.3008,-2.3008,-2.3007,-2.2968,-2.2967,-2.2965,-2.2964,-2.2964,-2.2966,-2.2967,-2.3008,0,0,-2.2972,-2.2972,0,0,0,0,0,0,0,0,-2.2979,-2.2979,-2.3008,-2.3008,-2.3008,-2.3008,-2.3008,-2.3007,-2.2968,-2.2967,-2.2965,-2.2964,-2.2965,-2.2966,-2.2967,0,0,0,0,0,0,0,0,0,0,0,0,0,0,0,-2.3008,-2.3008,0,-2.3008,-2.3008,-2.3007,-2.2968,-2.2967,-2.2966,-2.2965,-2.2965,-2.2966,-2.2967,0,0,0,0,0,0,0,0,0,0,0,0,0,0,0,0,0,0,0,0,0,0,0,0,0,0,0,0,0,0,0,0,0,0,0,0,0,0,0,0,0,0,0,0,0,0,0,0,0,0,0,0,0,0,0,0,0,0,0,0,0,0,0,0,0,0,0,0,0]}]]]